Hourly Weather Horedzh

Today, 17 April, Saturday

Time Temperature Precipitation Wind Pressure Humidity
00:00 +9°C° 0 mm 2 mps 670 mmHg 65%
01:00 +9°C° 0 mm 2 mps 669 mmHg 63%
02:00 +9°C° 0 mm 3 mps 669 mmHg 62%
03:00 +8°C° 0 mm 3 mps 669 mmHg 60%
04:00 +9°C° 0 mm 2 mps 669 mmHg 58%
05:00 +9°C° 0 mm 2 mps 670 mmHg 56%
06:00 +10°C° 0 mm 2 mps 670 mmHg 54%
07:00 +13°C° 0 mm 2 mps 670 mmHg 48%
08:00 +15°C° 0 mm 2 mps 670 mmHg 42%
09:00 +17°C° 0 mm 2 mps 670 mmHg 37%
10:00 +18°C° 0 mm 2 mps 670 mmHg 37%
11:00 +19°C° 0 mm 3 mps 670 mmHg 38%
12:00 +19°C° 0 mm 3 mps 670 mmHg 38%
13:00 +19°C° 0 mm 3 mps 670 mmHg 40%
14:00 +20°C° 0 mm 3 mps 670 mmHg 41%
15:00 +20°C° 0 mm 3 mps 670 mmHg 42%
16:00 +18°C° 0 mm 2 mps 670 mmHg 50%
17:00 +17°C° 0 mm 2 mps 670 mmHg 58%
18:00 +15°C° 0 mm 1 mps 670 mmHg 66%
19:00 +14°C° 0 mm 1 mps 670 mmHg 68%
20:00 +13°C° 0 mm 1 mps 670 mmHg 71%
21:00 +13°C° 0 mm 1 mps 670 mmHg 73%
22:00 +12°C° 0 mm 1 mps 670 mmHg 73%
23:00 +12°C° 0 mm 1 mps 670 mmHg 72%

Tomorrow, 18 April, Sunday

Time Temperature Precipitation Wind Pressure Humidity
00:00 +12°C° 0 mm 1 mps 669 mmHg 72%
01:00 +12°C° 0 mm 1 mps 669 mmHg 72%
02:00 +11°C° 0 mm 1 mps 669 mmHg 72%
03:00 +11°C° 0 mm 1 mps 669 mmHg 72%
04:00 +11°C° 0 mm 1 mps 669 mmHg 73%
05:00 +11°C° 0 mm 1 mps 669 mmHg 74%
06:00 +11°C° 0 mm 1 mps 669 mmHg 75%
07:00 +12°C° 0 mm 1 mps 669 mmHg 71%
08:00 +13°C° 0 mm 1 mps 669 mmHg 68%
09:00 +14°C° 0 mm 2 mps 669 mmHg 64%
10:00 +15°C° 0 mm 2 mps 669 mmHg 62%
11:00 +16°C° 0 mm 3 mps 669 mmHg 61%
12:00 +17°C° 0 mm 3 mps 669 mmHg 59%
13:00 +17°C° 0.1 mm 3 mps 669 mmHg 60%
14:00 +17°C° 0.1 mm 3 mps 669 mmHg 61%
15:00 +16°C° 0.1 mm 3 mps 669 mmHg 62%
16:00 +15°C° 0 mm 2 mps 669 mmHg 67%
17:00 +14°C° 0 mm 2 mps 669 mmHg 71%
18:00 +13°C° 0 mm 1 mps 669 mmHg 75%
19:00 +13°C° 0 mm 1 mps 669 mmHg 76%
20:00 +12°C° 0 mm 1 mps 669 mmHg 77%
21:00 +12°C° 0 mm 1 mps 669 mmHg 78%
22:00 +12°C° 0 mm 1 mps 669 mmHg 80%
23:00 +11°C° 0 mm 1 mps 669 mmHg 81%

Day after tomorrow, 19 April, Monday

Time Temperature Precipitation Wind Pressure Humidity
00:00 +11°C° 0 mm 1 mps 669 mmHg 83%
01:00 +11°C° 0 mm 1 mps 669 mmHg 83%
02:00 +11°C° 0 mm 1 mps 669 mmHg 83%
03:00 +11°C° 0 mm 1 mps 669 mmHg 83%
04:00 +11°C° 0 mm 1 mps 669 mmHg 80%
05:00 +12°C° 0 mm 1 mps 669 mmHg 77%
06:00 +12°C° 0 mm 1 mps 669 mmHg 74%
07:00 +13°C° 0 mm 1 mps 669 mmHg 68%
08:00 +15°C° 0 mm 1 mps 670 mmHg 62%
09:00 +16°C° 0 mm 2 mps 670 mmHg 56%
10:00 +17°C° 0.1 mm 2 mps 670 mmHg 56%
11:00 +18°C° 0.1 mm 3 mps 670 mmHg 55%
12:00 +18°C° 0.1 mm 3 mps 670 mmHg 55%
13:00 +18°C° 0.1 mm 3 mps 670 mmHg 56%
14:00 +18°C° 0.1 mm 3 mps 670 mmHg 57%
15:00 +18°C° 0.1 mm 3 mps 669 mmHg 58%
16:00 +17°C° 0 mm 3 mps 669 mmHg 62%
17:00 +16°C° 0 mm 2 mps 669 mmHg 66%
18:00 +15°C° 0 mm 1 mps 669 mmHg 70%
19:00 +14°C° 0 mm 1 mps 669 mmHg 72%
20:00 +13°C° 0 mm 1 mps 669 mmHg 73%
21:00 +13°C° 0 mm 1 mps 669 mmHg 75%
22:00 +13°C° 0 mm 1 mps 668 mmHg 74%
23:00 +12°C° 0 mm 1 mps 668 mmHg 72%

20 April, Tuesday

Time Temperature Precipitation Wind Pressure Humidity
00:00 +12°C° 0 mm 1 mps 668 mmHg 71%
01:00 +12°C° 0 mm 2 mps 668 mmHg 71%
02:00 +12°C° 0 mm 2 mps 667 mmHg 70%
03:00 +12°C° 0 mm 2 mps 667 mmHg 70%
04:00 +13°C° 0 mm 2 mps 667 mmHg 69%
05:00 +13°C° 0 mm 2 mps 667 mmHg 68%
06:00 +14°C° 0 mm 2 mps 667 mmHg 67%
07:00 +16°C° 0 mm 2 mps 667 mmHg 59%
08:00 +18°C° 0 mm 2 mps 667 mmHg 51%
09:00 +21°C° 0 mm 2 mps 668 mmHg 43%
10:00 +23°C° 0 mm 2 mps 667 mmHg 41%
11:00 +24°C° 0 mm 2 mps 667 mmHg 38%
12:00 +25°C° 0 mm 3 mps 667 mmHg 36%
13:00 +25°C° 0 mm 3 mps 666 mmHg 36%
14:00 +25°C° 0 mm 3 mps 666 mmHg 36%
15:00 +25°C° 0 mm 3 mps 666 mmHg 36%
16:00 +24°C° 0 mm 2 mps 666 mmHg 41%
17:00 +21°C° 0 mm 2 mps 665 mmHg 47%
18:00 +21°C° 0 mm 1 mps 665 mmHg 52%
19:00 +19°C° 0 mm 2 mps 665 mmHg 51%
20:00 +18°C° 0 mm 2 mps 665 mmHg 50%
21:00 +18°C° 0 mm 3 mps 665 mmHg 49%
22:00 +17°C° 0 mm 2 mps 665 mmHg 50%
23:00 +17°C° 0 mm 2 mps 666 mmHg 51%

21 April, Wednesday

Time Temperature Precipitation Wind Pressure Humidity
00:00 +17°C° 0 mm 2 mps 666 mmHg 53%
01:00 +16°C° 0 mm 2 mps 666 mmHg 55%
02:00 +16°C° 0 mm 2 mps 666 mmHg 58%
03:00 +15°C° 0 mm 2 mps 666 mmHg 61%
04:00 +15°C° 0 mm 2 mps 667 mmHg 65%
05:00 +14°C° 0 mm 1 mps 667 mmHg 69%
06:00 +14°C° 0 mm 1 mps 667 mmHg 73%
07:00 +15°C° 0 mm 2 mps 668 mmHg 71%
08:00 +16°C° 0 mm 3 mps 668 mmHg 69%
09:00 +17°C° 0 mm 4 mps 669 mmHg 66%
10:00 +17°C° 0 mm 4 mps 669 mmHg 67%
11:00 +17°C° 0 mm 4 mps 669 mmHg 67%
12:00 +17°C° 0 mm 4 mps 669 mmHg 68%
13:00 +15°C° 0.1 mm 4 mps 669 mmHg 71%
14:00 +15°C° 0.1 mm 4 mps 668 mmHg 74%
15:00 +14°C° 0.1 mm 4 mps 668 mmHg 77%
16:00 +13°C° 0.1 mm 3 mps 669 mmHg 81%
17:00 +12°C° 0.1 mm 3 mps 669 mmHg 85%
18:00 +12°C° 0.1 mm 2 mps 669 mmHg 88%
19:00 +12°C° 0 mm 2 mps 669 mmHg 90%
20:00 +12°C° 0 mm 1 mps 669 mmHg 92%
21:00 +11°C° 0 mm 1 mps 669 mmHg 93%
22:00 +11°C° 0 mm 1 mps 669 mmHg 93%
23:00 +11°C° 0 mm 1 mps 669 mmHg 92%

22 April, Thursday

Time Temperature Precipitation Wind Pressure Humidity
00:00 +11°C° 0 mm 1 mps 669 mmHg 92%
01:00 +11°C° 0 mm 1 mps 669 mmHg 93%
02:00 +11°C° 0 mm 1 mps 669 mmHg 94%
03:00 +10°C° 0 mm 1 mps 669 mmHg 95%
04:00 +10°C° 0.1 mm 1 mps 669 mmHg 95%
05:00 +10°C° 0.1 mm 1 mps 669 mmHg 96%
06:00 +10°C° 0.1 mm 1 mps 669 mmHg 96%
07:00 +10°C° 0 mm 1 mps 669 mmHg 94%
08:00 +10°C° 0 mm 2 mps 669 mmHg 92%
09:00 +10°C° 0 mm 2 mps 669 mmHg 90%
10:00 +10°C° 0.1 mm 2 mps 669 mmHg 89%
11:00 +10°C° 0.1 mm 2 mps 669 mmHg 89%
12:00 +10°C° 0.1 mm 2 mps 669 mmHg 88%
13:00 +10°C° 0.1 mm 2 mps 669 mmHg 89%
14:00 +10°C° 0.1 mm 2 mps 670 mmHg 90%
15:00 +9°C° 0.1 mm 2 mps 670 mmHg 91%
16:00 +9°C° 0.1 mm 2 mps 670 mmHg 92%
17:00 +8°C° 0.1 mm 2 mps 670 mmHg 94%
18:00 +9°C° 0.1 mm 1 mps 670 mmHg 95%
19:00 +9°C° 0 mm 1 mps 670 mmHg 95%
20:00 +9°C° 0 mm 1 mps 671 mmHg 94%
21:00 +9°C° 0 mm 1 mps 671 mmHg 94%
22:00 +9°C° 0.1 mm 1 mps 671 mmHg 93%
23:00 +9°C° 0.1 mm 1 mps 670 mmHg 93%
Show more

We Need Your Consent

Meteoprog and our Service Providers may store and access personal data such as cookies, device identifiers or other similar technologies on your device and process such data to personalise content and ads, as well as provide social media features and to analyse the traffic.

  • Store and/or access information on your device

    Cookies, device identifiers or other information can be stored or accessed on your device for the purposes indicated above.

  • Personalised ads and content, ad and content measurement, audience insights, and products development

    Ads and content can be personalised based on a profile. More data can be added to better personalise ads and content. Ad and content performance can be measured. Insights about the audience who saw the ads and content can be derived. Such data can be used to develop or improve user’s experience, systems and software.

By clicking ‘I Agree’ you will allow the use of indicated cookies, device identifiers, web beacons or other similar technologies. Your settings can be changed in the browser on your device.

For certain purposes, legitimate interests may be relied on, rather than consent. You can read more about this in our Privacy and Cookie Policy.